[[{"header":{"parameterUnit":"m.s-1","parameterCategory":1,"la1":30.2991,"la2":30.254,"lo1":-89.0895,"lo2":-89.0444,"dy":0.0017,"dx":0.0017,"nx":28,"ny":28,"refTime":"2023-09-05T21:00:00:Z","depth":0,"parameterNumber":2,"parameterNumberName":"U-component_of_WINDS"},"data":[0,0,0,0,0,0,0,0,0,0,0,0,0,0,0,0,0,0,0,0,0,0,0,0,0,0,0,0,0,0,0,0,0,0,0,0,0,0,0,0,0,0,0,0,0,0,0,0,0,0,0,0,0,0,0,0,0,0,-2.1071,-2.1071,0,-2.1053,-2.1053,-2.1053,-2.1021,-2.1021,-2.102,-2.102,-2.1001,-2.1001,-2.1001,0,0,0,0,0,0,0,0,0,0,0,0,0,-2.1078,-2.1078,-2.1071,-2.1071,-2.1071,-2.1053,-2.1053,-2.1053,-2.1022,-2.1021,-2.102,-2.1019,-2.1001,-2.1001,-2.1001,0,0,0,0,0,0,0,0,0,0,0,0,0,-2.1069,-2.1078,-2.1071,-2.1053,-2.1051,-2.1053,-2.1053,-2.1053,-2.1022,-2.1021,-2.102,-2.1019,-2.1001,-2.1001,-2.1001,-2.1019,0,0,-2.1001,-2.1001,0,0,0,0,0,0,0,0,-2.107,-2.1069,-2.1056,-2.1054,-2.1052,-2.1039,-2.1049,-2.1041,-2.1022,-2.1033,-2.102,-2.1019,-2.1014,-2.1013,-2.1011,-2.1018,-2.1017,-2.1001,-2.1001,-2.1001,-2.1001,0,0,0,0,0,0,0,-2.1071,-2.107,-2.1064,-2.1056,-2.1053,-2.1046,-2.1044,-2.1047,-2.1029,-2.1032,-2.103,-2.1028,-2.1013,-2.1011,-2.1011,-2.1017,-2.1001,-2.1001,-2.1001,-2.1001,-2.1038,-2.1039,0,0,0,0,0,0,-2.1074,-2.107,-2.1065,-2.1063,-2.1059,-2.1046,-2.1044,-2.1044,-2.1028,-2.1025,-2.1029,-2.1026,-2.1012,-2.1011,-2.101,-2.103,-2.1001,-2.1001,-2.1001,-2.1037,-2.1038,-2.1039,0,0,0,0,0,0,-2.1074,-2.1074,-2.1065,-2.1066,-2.1065,-2.1047,-2.1048,-2.1044,-2.1043,-2.1026,-2.1023,-2.1031,-2.1011,-2.101,-2.1017,-2.1029,-2.1001,-2.1001,-2.1036,-2.1037,-2.1038,-2.107,0,0,0,0,0,0,-2.1074,-2.1074,-2.108,-2.1067,-2.1065,-2.1073,-2.1048,-2.1044,-2.1043,-2.104,-2.1027,-2.1024,-2.101,-2.1017,-2.1017,-2.1028,-2.1001,-2.1035,-2.1036,-2.1038,-2.1067,-2.1072,-2.1076,0,0,0,0,0,-2.1075,-2.109,-2.1081,-2.108,-2.1073,-2.1073,-2.1072,-2.1056,-2.1044,-2.105,-2.104,-2.1024,-2.1028,-2.1018,-2.1018,-2.1029,-2.1034,-2.1036,-2.1038,-2.1066,-2.1071,-2.1076,0,0,0,0,0,0,-2.1105,-2.1087,-2.1077,-2.1088,-2.1083,-2.1068,-2.1075,-2.1063,-2.106,-2.1057,-2.1037,-2.1035,-2.1044,-2.1038,-2.1027,-2.1046,-2.1028,-2.1031,-2.105,-2.1055,-2.1059,-2.1059,-2.1001,0,0,0,0,0,-2.1113,-2.1115,-2.11,-2.1111,-2.1109,-2.1093,-2.1092,-2.1081,-2.1074,-2.1071,-2.1061,-2.1055,-2.1055,-2.1055,-2.1053,-2.1067,-2.1064,-2.1075,-2.1079,-2.1083,-2.1084,-2.1091,-2.1096,-2.1046,-2.1046,-2.1046,0,0,-2.1129,-2.112,-2.1122,-2.1117,-2.1111,-2.1113,-2.1091,-2.1094,-2.1096,-2.1072,-2.1077,-2.107,-2.1062,-2.1073,-2.1077,-2.1067,-2.1098,-2.1086,-2.1088,-2.1088,-2.1094,-2.1098,-2.1102,-2.1047,-2.1047,-2.1047,0,0,-2.1159,-2.1153,-2.1161,-2.1156,-2.1148,-2.1137,-2.114,-2.1127,-2.1122,-2.1128,-2.111,-2.1112,-2.1112,-2.1106,-2.1104,-2.1134,-2.1119,-2.1135,-2.1155,-2.1162,-2.1166,-2.1169,-2.1179,-2.1183,-2.1137,-2.1137,-2.1137,0,-2.118,-2.1183,-2.1167,-2.1172,-2.117,-2.1149,-2.1158,-2.1154,-2.1145,-2.1144,-2.1134,-2.1134,-2.1127,-2.1136,-2.1144,-2.1143,-2.1144,-2.1135,-2.1167,-2.117,-2.1173,-2.1182,-2.1186,-2.1138,-2.1138,-2.1138,-2.1138,0,-2.1209,-2.1211,-2.1219,-2.1212,-2.1211,-2.1218,-2.1203,-2.1204,-2.1194,-2.1185,-2.1191,-2.1183,-2.1179,-2.1181,-2.117,-2.1189,-2.1183,-2.1171,-2.1152,-2.118,-2.1188,-2.1192,-2.1141,-2.114,-2.114,-2.1139,0,0,-2.1255,-2.124,-2.1243,-2.124,-2.123,-2.1232,-2.1238,-2.1235,-2.1236,-2.1232,-2.1236,-2.1238,-2.1226,-2.1223,-2.1212,-2.1218,-2.1242,-2.1205,-2.1204,-2.1211,-2.1261,-2.1269,-2.1274,-2.1234,-2.1234,-2.1235,-2.1261,0,-2.1282,-2.1291,-2.1278,-2.129,-2.1292,-2.1273,-2.1279,-2.1273,-2.1266,-2.1266,-2.1258,-2.1259,-2.1244,-2.1242,-2.1248,-2.1238,-2.1252,-2.1236,-2.1236,-2.1237,-2.1237,-2.1278,-2.1287,-2.1312,-2.1265,-2.1265,-2.1266,0,-2.1314,-2.1312,-2.1324,-2.1314,-2.1314,-2.1319,-2.1316,-2.1317,-2.1311,-2.1305,-2.1303,-2.129,-2.1295,-2.1279,-2.1286,-2.1276,-2.1276,-2.1271,-2.1272,-2.127,-2.1251,-2.1276,-2.132,-2.1324,-2.1271,-2.127,-2.127,0,-2.1345,-2.1346,-2.1353,-2.1351,-2.1339,-2.1343,-2.1339,-2.1332,-2.1331,-2.1329,-2.1328,-2.1326,-2.1325,-2.1324,-2.1311,-2.1301,-2.132,-2.1302,-2.1314,-2.1314,-2.1317,-2.1317,-2.1361,-2.132,-2.132,-2.132,-2.132,0,-2.1376,-2.1384,-2.1367,-2.1371,-2.1379,-2.1365,-2.1374,-2.1367,-2.1362,-2.1365,-2.1349,-2.1352,-2.1336,-2.1337,-2.1328,-2.1334,-2.1334,-2.1329,-2.1326,-2.133,-2.133,-2.1328,-2.1325,-2.1321,-2.132,-2.132,-2.132,0,-2.1411,-2.14,-2.1407,-2.1396,-2.1394,-2.14,-2.1391,-2.1395,-2.1387,-2.1391,-2.1391,-2.1378,-2.1379,-2.1367,-2.1365,-2.1359,-2.1369,-2.1364,-2.1371,-2.1369,-2.1381,-2.138,-2.1423,-2.1428,-2.1386,-2.1386,-2.1387,0,-2.1431,-2.1436,-2.1427,-2.1427,-2.1424,-2.1426,-2.1425,-2.1411,-2.1412,-2.1406,-2.141,-2.141,-2.1409,-2.1411,-2.1402,-2.1401,-2.1394,-2.141,-2.1394,-2.1397,-2.1393,-2.1392,-2.1392,-2.1413,-2.1413,-2.1414,-2.1414,0,-2.1466,-2.146,-2.146,-2.1459,-2.1459,-2.1456,-2.1453,-2.1455,-2.144,-2.1442,-2.1442,-2.1442,-2.1441,-2.144,-2.1438,-2.1433,-2.1421,-2.1419,-2.1422,-2.1424,-2.1428,-2.1425,-2.1379,-2.1418,-2.1417,-2.1417,-2.1417,-2.1417,-2.1493,-2.1497,-2.1491,-2.1492,-2.1488,-2.1486,-2.1489,-2.1482,-2.1482,-2.148,-2.1472,-2.1475,-2.1469,-2.1464,-2.1461,-2.1463,-2.1455,-2.1459,-2.146,-2.146,-2.1462,-2.1429,-2.1463,-2.1462,-2.1462,-2.1462,-2.1462,0,-2.1526,-2.1522,-2.1523,-2.1519,-2.152,-2.1509,-2.1506,-2.1507,-2.1509,-2.1505,-2.1505,-2.1506,-2.1506,-2.1497,-2.1496,-2.1499,-2.1494,-2.15,-2.1498,-2.1497,-2.1469,-2.1467,-2.1504,-2.1504,-2.1504,-2.1504,-2.1504,-2.1504,-2.1544,-2.155,-2.1544,-2.1549,-2.1545,-2.1547,-2.1545,-2.1543,-2.154,-2.1542,-2.1542,-2.1537,-2.1531,-2.153,-2.153,-2.1527,-2.1527,-2.1534,-2.153,-2.1503,-2.1499,-2.1495,-2.1493,-2.1535,-2.1535,-2.1557,-2.1558,-2.1558]},{"header":{"parameterUnit":"m.s-1","parameterCategory":1,"la1":30.2991,"la2":30.254,"lo1":-89.0895,"lo2":-89.0444,"dy":0.0017,"dx":0.0017,"nx":28,"ny":28,"refTime":"2023-09-05T21:00:00:Z","depth":0,"parameterNumber":3,"parameterNumberName":"V-component_of_WINDS"},"data":[0,0,0,0,0,0,0,0,0,0,0,0,0,0,0,0,0,0,0,0,0,0,0,0,0,0,0,0,0,0,0,0,0,0,0,0,0,0,0,0,0,0,0,0,0,0,0,0,0,0,0,0,0,0,0,0,0,0,3.214,3.2141,0,3.2239,3.224,3.2242,3.2275,3.2274,3.2274,3.2274,3.2371,3.2374,3.2377,0,0,0,0,0,0,0,0,0,0,0,0,0,3.1976,3.1979,3.214,3.2141,3.2143,3.2239,3.224,3.2242,3.2275,3.2274,3.2274,3.2273,3.237,3.2373,3.2377,0,0,0,0,0,0,0,0,0,0,0,0,0,3.2058,3.198,3.214,3.2171,3.2175,3.2239,3.224,3.2242,3.2275,3.2274,3.2274,3.2273,3.2369,3.2373,3.2377,3.2417,0,0,3.2391,3.2393,0,0,0,0,0,0,0,0,3.2053,3.2064,3.2165,3.2169,3.2173,3.2244,3.2218,3.2301,3.2275,3.2237,3.2274,3.2273,3.2329,3.2337,3.2356,3.2421,3.2426,3.2391,3.2394,3.2396,3.2397,0,0,0,0,0,0,0,3.2048,3.206,3.2179,3.2166,3.2171,3.2179,3.219,3.2234,3.2285,3.224,3.2243,3.2254,3.2331,3.2352,3.2359,3.2427,3.2391,3.2395,3.2398,3.24,3.253,3.2531,0,0,0,0,0,0,3.2037,3.2055,3.2176,3.2182,3.2111,3.2182,3.2194,3.2222,3.2284,3.2294,3.2255,3.2255,3.2345,3.2354,3.2362,3.2413,3.2396,3.24,3.2403,3.2529,3.253,3.2531,0,0,0,0,0,0,3.2034,3.2048,3.2172,3.2119,3.2136,3.2186,3.2216,3.2224,3.2245,3.2296,3.2304,3.2267,3.2345,3.2356,3.2404,3.2417,3.2402,3.2406,3.2528,3.2529,3.253,3.2514,0,0,0,0,0,0,3.2029,3.2046,3.2063,3.212,3.2139,3.2212,3.2217,3.2226,3.2253,3.2255,3.231,3.2318,3.2345,3.2397,3.2408,3.2423,3.241,3.2527,3.2529,3.253,3.2514,3.2515,3.2516,0,0,0,0,0,3.2023,3.2053,3.2063,3.2078,3.216,3.2213,3.2224,3.2256,3.2254,3.2271,3.2303,3.2316,3.2414,3.2401,3.2414,3.2431,3.2526,3.2528,3.253,3.2513,3.2515,3.2516,0,0,0,0,0,0,3.1994,3.2061,3.2073,3.2123,3.2162,3.2219,3.224,3.2256,3.2295,3.2295,3.2332,3.2344,3.2388,3.2414,3.2399,3.2472,3.2471,3.2475,3.2454,3.2455,3.2456,3.2449,3.2413,0,0,0,0,0,3.1994,3.2033,3.2089,3.2127,3.2146,3.219,3.2214,3.2235,3.2277,3.2294,3.2329,3.2368,3.2408,3.2433,3.2472,3.2518,3.253,3.2536,3.2536,3.2537,3.254,3.2566,3.2569,3.2537,3.2537,3.2537,0,0,3.1994,3.2035,3.2057,3.2122,3.2155,3.2194,3.2203,3.2243,3.2272,3.2299,3.2347,3.2374,3.242,3.2467,3.2489,3.249,3.2552,3.2539,3.2539,3.2542,3.2569,3.2572,3.2574,3.2538,3.2538,3.2538,0,0,3.2012,3.2047,3.2084,3.2117,3.2168,3.2197,3.2205,3.226,3.228,3.2328,3.235,3.2383,3.2451,3.2483,3.2508,3.254,3.2553,3.2551,3.2555,3.2581,3.2583,3.2586,3.2597,3.2601,3.2554,3.2554,3.2554,0,3.2005,3.2065,3.21,3.2139,3.2167,3.2196,3.2232,3.2262,3.2322,3.234,3.2341,3.2427,3.2459,3.2514,3.2522,3.2541,3.2552,3.2545,3.258,3.2583,3.2586,3.2597,3.2601,3.2554,3.2554,3.2554,3.2554,0,3.2053,3.2094,3.2117,3.2176,3.2207,3.2244,3.2284,3.2311,3.233,3.2358,3.2407,3.2448,3.2496,3.2511,3.2529,3.2568,3.2567,3.2573,3.2572,3.2588,3.2599,3.2603,3.2553,3.2553,3.2553,3.2553,0,0,3.2055,3.2135,3.2142,3.217,3.2228,3.226,3.2299,3.2348,3.237,3.241,3.2443,3.25,3.2507,3.2535,3.2557,3.2579,3.2602,3.2583,3.2584,3.2585,3.2648,3.2643,3.2647,3.2612,3.2613,3.2613,3.2644,0,3.2081,3.2153,3.2187,3.2243,3.2281,3.2309,3.2343,3.2382,3.241,3.2445,3.2476,3.2516,3.2521,3.2539,3.2562,3.2594,3.2615,3.2592,3.2642,3.2643,3.2629,3.2653,3.2647,3.2674,3.2649,3.2649,3.265,0,3.2121,3.2164,3.2224,3.2279,3.2296,3.2326,3.2374,3.2408,3.2452,3.2471,3.2503,3.2525,3.2566,3.2563,3.2619,3.2603,3.2625,3.2644,3.2646,3.2652,3.2647,3.2658,3.2684,3.2688,3.2657,3.2656,3.2656,0,3.2117,3.2189,3.2235,3.2258,3.2322,3.2343,3.237,3.2415,3.2442,3.2483,3.2501,3.2546,3.257,3.2604,3.2637,3.2631,3.269,3.2689,3.2706,3.2705,3.2716,3.2715,3.2745,3.2731,3.2731,3.2731,3.2731,0,3.2142,3.2178,3.2234,3.2262,3.2303,3.2341,3.238,3.241,3.2449,3.2483,3.2509,3.254,3.2582,3.2617,3.2643,3.2686,3.2697,3.2712,3.2719,3.271,3.2708,3.2724,3.2723,3.2732,3.2732,3.2732,3.2731,0,3.2144,3.2183,3.2235,3.2293,3.2308,3.2336,3.2385,3.2413,3.2442,3.2485,3.2497,3.2543,3.2586,3.2623,3.2679,3.2697,3.2741,3.2749,3.2727,3.273,3.2744,3.2742,3.2786,3.2793,3.2774,3.2774,3.2774,0,3.2158,3.2186,3.2248,3.2273,3.2301,3.2341,3.2369,3.2407,3.2436,3.2489,3.251,3.2556,3.2595,3.2663,3.2701,3.2745,3.2753,3.2766,3.276,3.275,3.2753,3.2751,3.2754,3.2766,3.2766,3.2766,3.2766,0,3.2177,3.2196,3.2236,3.2284,3.2318,3.2357,3.2396,3.2415,3.246,3.2491,3.2537,3.2567,3.2626,3.2671,3.2719,3.2746,3.2763,3.2768,3.2774,3.2765,3.2751,3.2758,3.2727,3.2766,3.2766,3.2766,3.2766,3.2766,3.2186,3.2213,3.226,3.2305,3.2339,3.2376,3.2405,3.2439,3.2478,3.253,3.255,3.2597,3.2641,3.2707,3.2735,3.2772,3.2774,3.2782,3.2784,3.2786,3.2785,3.2745,3.278,3.278,3.278,3.278,3.278,0,3.2207,3.2239,3.228,3.2335,3.237,3.2385,3.243,3.2458,3.2499,3.2539,3.2578,3.263,3.2674,3.2716,3.2762,3.2783,3.2792,3.2794,3.2792,3.2798,3.278,3.277,3.2786,3.2786,3.2786,3.2786,3.2786,3.2786,3.2222,3.2269,3.2292,3.2356,3.2388,3.2435,3.2459,3.2493,3.2526,3.2584,3.2621,3.2648,3.2689,3.2739,3.2779,3.2791,3.2806,3.2806,3.2818,3.2801,3.28,3.2799,3.279,3.2809,3.2809,3.2834,3.2834,3.2834]}]]